TEMELIN Weather Reports


Display with metric or nautical units.
time (UTC)temp
F
wind
direction
speed
MPH
gust
MPH
rain 1hr
in
rain 24hr
in
rain mn
in
humidity
%
barometer
mb
20260903091819 68 280 12.0 0.0 0.00 0.00 0.00 56
20260903081818 66 280 9.0 0.0 0.00 0.00 0.00 59
20260903072032 64 250 5.0 0.0 0.00 0.00 0.00 67
20260903061818 61 230 5.0 0.0 0.00 0.00 0.00 77
20260903051818 59 220 5.0 0.0 0.00 0.00 0.00 82
20260903042221 59 220 2.0 0.0 0.00 0.00 0.00 77
20260903031819 61 210 2.0 0.0 0.00 0.00 0.00 72
20260903021818 61 40 2.0 0.0 0.00 0.00 0.00 72
20260903012031 63 280 5.0 0.0 0.00 0.00 0.00 67
20260903001820 61 230 5.0 0.0 0.00 0.00 0.00 67
20260902231818 61 40 2.0 0.0 0.00 0.00 0.00 67
20260902222221 64 260 5.0 0.0 0.00 0.00 0.00 59
20260902211820 63 260 5.0 0.0 0.00 0.00 0.00 63
20260902201820 64 280 5.0 0.0 0.00 0.00 0.00 59
20260902192025 66 270 5.0 0.0 0.00 0.00 0.00 55
20260902181818 68 290 5.0 0.0 0.00 0.00 0.00 52
20260902172031 70 310 7.0 0.0 0.00 0.00 0.00 49
20260902162221 72 270 5.0 0.0 0.00 0.00 0.00 46
20260902151817 72 250 5.0 0.0 0.00 0.00 0.00 46
20260902142032 73 260 7.0 0.0 0.00 0.00 0.00 43
20260902132030 73 280 9.0 0.0 0.00 0.00 0.00 43
20260902121820 72 300 5.0 0.0 0.00 0.00 0.00 43
20260902112031 72 280 5.0 0.0 0.00 0.00 0.00 46
20260902102120 72 290 7.0 0.0 0.00 0.00 0.00 46